sat.trackr.live / text

‹ back to catalog

TOMORROW-S6

NORAD 63225 · 2025-052R

PAYLOAD ACTIVE UNKNOWN

§ Identity

Operator
Country
US
Launch date
2025-03-15
Launch site
AFWTR
Launch vehicle
Mass (kg)
RCS (m²)

External: N2YO · Heavens-Above · Gunter

§ Orbital elements

Epoch: 2026-05-25T03:52:56.813088Z

Period
94.60 min
Inclination
97.4039°
Eccentricity
0.0004334
Mean motion
15.22196096 rev/d
Perigee alt
496.2 km
Apogee alt
502.2 km
Semi-major
6,877.4 km
B*
1.7716e-4
RAAN
38.4173°
Arg perigee
196.2880°
Mean anomaly
163.8217°
Rev number
6,634

§ Raw data

TOMORROW-S61 63225U 25052R   26145.16176867  .00003999  00000+0  17716-3 0  99962 63225  97.4039  38.4173 0004334 196.2880 163.8217 15.22196096 66344

JSON: /api/v1/satellites/63225 · /tle

For live sub-satellite position, see the globe view (requires WebGL).

§ Visibility from observer

Set your observer location to see the next 7 days of passes ≥ 10°. The values pass through the URL so the page stays shareable.

No JS? Fill the form by hand. The geolocation button needs JavaScript.